Anaktuvuk Pass, AK

8:39 AM AKDT on April 27, 2017 (GMT -0800)
Anaktuvuk Pass

Weather History for PAKP - August, 2013

Change the Weather History Date:

Wednesday, August 14, 2013

  Actual Average Record
Temperature  
Mean Temperature 48 °F -  
Max Temperature 53 °F 51 °F 73 °F (2005)
Min Temperature 42 °F 37 °F 26 °F (2002)
Degree Days  
Heating Degree Days 18    
Moisture  
Dew Point 42 °F    
Average Humidity 83    
Maximum Humidity 93    
Minimum Humidity 72    
Precipitation  
Precipitation 0.03 in - - ()
Sea Level Pressure  
Sea Level Pressure 29.88 in    
Wind  
Wind Speed 10 mph (NE)    
Max Wind Speed 16 mph    
Max Gust Speed 21 mph    
Visibility 8 miles    
Events      
Averages and records for this station are not official NWS values.
T = Trace of Precipitation, MM = Missing Value Source: NWS Daily Summary

Daily Weather History Graph

Daily Weather History Graph

Search for Another Location

Airport or City:

Trip Planner

Search our weather history database for the weather conditions in past years. The results will help you decide how hot, cold, wet, or windy it might be!

Date:

Astronomy

Aug. 14, 2013 Rise Set
Actual Time 5:23 AM AKDT 10:56 PM AKDT
Civil Twilight 3:43 AM AKDT 12:32 AM AKDT
Nautical Twilight Sun does not set Sun does not set
Astronomical Twilight Sun does not set Sun does not set
Moon 6:19 PM AKDT (8/14) 10:41 PM AKDT (8/14)
Length of Visible Light 20h 48m
Length of Day
17h 33m
First Quarter, 54% of the Moon is Illuminated
Aug 14
First Quarter
Aug 20
Full
Aug 28
Last Quarter
Sep 5
New
Sep 12
First Quarter

Hourly Weather History & Observations

Time (AKDT) Temp. Windchill Dew Point Humidity Pressure Visibility Wind Dir Wind Speed Gust Speed Precip Events Conditions
12:16 AM 53.6 °F - 46.4 °F 77% 29.92 in 10.0 mi NE 6.9 mph - N/A   Overcast
12:36 AM 53.6 °F - 44.6 °F 72% 29.92 in 10.0 mi ENE 8.1 mph - N/A   Mostly Cloudy
12:56 AM 51.8 °F - 44.6 °F 76% 29.92 in 10.0 mi NE 8.1 mph - N/A   Scattered Clouds
1:16 AM 51.8 °F - 44.6 °F 76% 29.92 in 10.0 mi NE 9.2 mph - N/A   Mostly Cloudy
1:36 AM 50.0 °F - 44.6 °F 82% 29.92 in 10.0 mi ENE 8.1 mph - N/A   Mostly Cloudy
1:56 AM 50.0 °F - 44.6 °F 82% 29.92 in 10.0 mi NE 6.9 mph - N/A   Overcast
2:16 AM 50.0 °F - 44.6 °F 82% 29.92 in 10.0 mi NE 6.9 mph - N/A   Overcast
2:36 AM 48.2 °F - 44.6 °F 87% 29.91 in 10.0 mi NE 4.6 mph - N/A   Overcast
2:56 AM 50.0 °F - 44.6 °F 82% 29.91 in 10.0 mi NE 6.9 mph - N/A   Overcast
3:16 AM 50.0 °F - 44.6 °F 82% 29.91 in 10.0 mi NE 6.9 mph - N/A   Overcast
3:36 AM 50.0 °F - 44.6 °F 82% 29.90 in 10.0 mi NE 6.9 mph - N/A   Overcast
3:56 AM 50.0 °F - 44.6 °F 82% 29.90 in 10.0 mi NE 8.1 mph - N/A   Overcast
4:16 AM 50.0 °F - 44.6 °F 82% 29.89 in 10.0 mi NE 6.9 mph - N/A   Overcast
4:36 AM 48.2 °F - 44.6 °F 87% 29.89 in 10.0 mi NE 8.1 mph - N/A   Overcast
4:56 AM 48.2 °F - 44.6 °F 87% 29.89 in 10.0 mi NE 8.1 mph - N/A   Overcast
5:16 AM 48.2 °F - 44.6 °F 87% 29.89 in 10.0 mi NE 6.9 mph - N/A   Overcast
5:36 AM 48.2 °F - 44.6 °F 87% 29.89 in 10.0 mi NNE 9.2 mph - N/A   Overcast
5:56 AM 48.2 °F - 44.6 °F 87% 29.88 in 7.0 mi NE 9.2 mph - N/A   Overcast
6:16 AM 48.2 °F - 44.6 °F 87% 29.88 in 0.2 mi NE 9.2 mph - N/A   Overcast
6:36 AM 48.2 °F - 44.6 °F 87% 29.88 in 0.2 mi NE 9.2 mph - N/A   Overcast
6:56 AM 48.2 °F - 44.6 °F 87% 29.88 in 0.2 mi NE 10.4 mph - N/A   Overcast
7:16 AM 48.2 °F - 44.6 °F 87% 29.88 in 0.2 mi NNE 10.4 mph - N/A   Overcast
7:36 AM 46.4 °F 41.5 °F 44.6 °F 93% 29.87 in 0.2 mi NE 10.4 mph - N/A   Overcast
7:56 AM 46.4 °F 41.5 °F 42.8 °F 87% 29.86 in 1.0 mi NE 10.4 mph - N/A   Overcast
8:16 AM 46.4 °F 41.1 °F 42.8 °F 87% 29.87 in 2.5 mi NE 11.5 mph - N/A   Overcast
8:36 AM 46.4 °F 41.1 °F 42.8 °F 87% 29.87 in 1.8 mi NE 11.5 mph - N/A   Overcast
8:56 AM 46.4 °F 41.1 °F 42.8 °F 87% 29.86 in 0.8 mi NE 11.5 mph - N/A   Overcast
9:16 AM 46.4 °F 41.1 °F 42.8 °F 87% 29.87 in 0.8 mi NNE 11.5 mph - N/A   Overcast
9:36 AM 46.4 °F 41.1 °F 42.8 °F 87% 29.86 in 1.8 mi NE 11.5 mph - N/A   Overcast
9:56 AM 46.4 °F 41.1 °F 42.8 °F 87% 29.86 in 3.0 mi NE 11.5 mph - N/A   Overcast
10:16 AM 46.4 °F 41.5 °F 42.8 °F 87% 29.86 in 5.0 mi NNE 10.4 mph - N/A   Overcast
10:36 AM 48.2 °F - 42.8 °F 82% 29.86 in 9.0 mi NNE 9.2 mph - N/A   Overcast
10:56 AM 48.2 °F - 42.8 °F 82% 29.86 in 10.0 mi NE 9.2 mph - N/A   Overcast
11:56 AM 48.2 °F - 42.8 °F 82% 29.86 in 10.0 mi NNE 10.4 mph - N/A   Overcast
12:16 PM 48.2 °F - 42.8 °F 82% 29.86 in 10.0 mi NE 10.4 mph - N/A   Overcast
12:36 PM 48.2 °F - 42.8 °F 82% 29.86 in 10.0 mi NNE 11.5 mph - N/A   Overcast
12:56 PM 48.2 °F - 42.8 °F 82% 29.86 in 10.0 mi NNE 11.5 mph - N/A   Overcast
1:16 PM 48.2 °F - 42.8 °F 82% 29.86 in 10.0 mi NNE 9.2 mph - N/A   Mostly Cloudy
1:36 PM 48.2 °F - 42.8 °F 82% 29.86 in 9.0 mi NNE 9.2 mph - N/A   Overcast
1:56 PM 48.2 °F - 42.8 °F 82% 29.86 in 10.0 mi NE 11.5 mph - N/A   Overcast
2:16 PM 48.2 °F - 42.8 °F 82% 29.86 in 10.0 mi NE 10.4 mph - N/A   Overcast
2:36 PM 46.4 °F 41.9 °F 42.8 °F 87% 29.86 in 10.0 mi NE 9.2 mph - N/A   Overcast
2:56 PM 46.4 °F 41.5 °F 42.8 °F 87% 29.86 in 5.0 mi NE 10.4 mph - N/A   Overcast
3:16 PM 46.4 °F 42.9 °F 42.8 °F 87% 29.86 in 7.0 mi NE 6.9 mph - 0.01 in   Overcast
3:36 PM 46.4 °F 41.5 °F 42.8 °F 87% 29.86 in 8.0 mi NNE 10.4 mph - 0.01 in   Overcast
3:56 PM 46.4 °F 41.1 °F 42.8 °F 87% 29.86 in 8.0 mi NE 11.5 mph - 0.02 in   Overcast
4:16 PM 46.4 °F 40.4 °F 42.8 °F 87% 29.86 in 9.0 mi NE 13.8 mph - 0.01 in   Overcast
4:36 PM 46.4 °F 41.1 °F 42.8 °F 87% 29.85 in 10.0 mi NE 11.5 mph - 0.01 in   Overcast
4:56 PM 48.2 °F - 42.8 °F 82% 29.85 in 10.0 mi NE 12.7 mph 17.3 mph 0.01 in   Overcast
5:16 PM 48.2 °F - 42.8 °F 82% 29.86 in 10.0 mi NNE 13.8 mph - N/A   Overcast
5:36 PM 48.2 °F - 42.8 °F 82% 29.86 in 10.0 mi NNE 12.7 mph - N/A   Overcast
5:56 PM 48.2 °F - 42.8 °F 82% 29.86 in 10.0 mi NNE 11.5 mph - N/A   Overcast
6:16 PM 48.2 °F - 42.8 °F 82% 29.86 in 10.0 mi NE 16.1 mph - N/A   Overcast
6:36 PM 46.4 °F 40.1 °F 41.0 °F 81% 29.86 in 10.0 mi NE 15.0 mph 18.4 mph N/A   Overcast
6:56 PM 46.4 °F 40.4 °F 41.0 °F 81% 29.86 in 10.0 mi NE 13.8 mph - N/A   Overcast
7:16 PM 46.4 °F 40.1 °F 39.2 °F 76% 29.86 in 10.0 mi NE 15.0 mph 20.7 mph N/A   Overcast
7:36 PM 44.6 °F 37.8 °F 39.2 °F 81% 29.87 in 10.0 mi NE 15.0 mph 20.7 mph N/A   Overcast
7:56 PM 44.6 °F 38.1 °F 39.2 °F 81% 29.87 in 10.0 mi NE 13.8 mph 19.6 mph N/A   Overcast
8:16 PM 44.6 °F 37.8 °F 39.2 °F 81% 29.87 in 10.0 mi NE 15.0 mph 18.4 mph N/A   Overcast
8:36 PM 44.6 °F 38.1 °F 39.2 °F 81% 29.87 in 10.0 mi NE 13.8 mph 19.6 mph N/A   Overcast
8:56 PM 44.6 °F 38.1 °F 37.4 °F 76% 29.88 in 10.0 mi NE 13.8 mph - N/A   Overcast
9:16 PM 44.6 °F 37.8 °F 39.2 °F 81% 29.88 in 10.0 mi NE 15.0 mph 18.4 mph N/A   Overcast
9:36 PM 44.6 °F 38.1 °F 39.2 °F 81% 29.88 in 10.0 mi NE 13.8 mph 19.6 mph N/A   Overcast
9:56 PM 42.8 °F 35.4 °F 37.4 °F 81% 29.89 in 10.0 mi NE 15.0 mph 20.7 mph N/A   Overcast
10:16 PM 42.8 °F 36.2 °F 37.4 °F 81% 29.89 in 10.0 mi NE 12.7 mph 17.3 mph N/A   Overcast
10:36 PM 42.8 °F 37.0 °F 37.4 °F 81% 29.89 in 10.0 mi NE 10.4 mph - N/A   Overcast
10:56 PM 42.8 °F 36.2 °F 37.4 °F 81% 29.90 in 10.0 mi NE 12.7 mph - N/A   Overcast
11:16 PM 42.8 °F 36.2 °F 37.4 °F 81% 29.90 in 10.0 mi NE 12.7 mph - N/A   Overcast
11:36 PM 42.8 °F 36.6 °F 37.4 °F 81% 29.90 in 10.0 mi NE 11.5 mph - N/A   Overcast
11:56 PM 42.8 °F 37.0 °F 37.4 °F 81% 29.90 in 10.0 mi NE 10.4 mph - N/A   Overcast